Time,TemperatureF,DewpointF,PressureIn,WindDirection,WindDirectionDegrees,WindSpeedMPH,WindSpeedGustMPH,Humidity,HourlyPrecipIn,Conditions,Clouds,dailyrainin,SoftwareType,DateUTC
2013-11-16 00:01:00,45.6,32.6,30.18,SW,229,4.0,8.0,60,0.00,,,0.00,WUHU216DAVISVP2,2013-11-16 05:01:00,
2013-11-16 00:06:00,45.5,32.5,30.18,SSW,208,4.0,14.0,60,0.00,,,0.00,WUHU216DAVISVP2,2013-11-16 05:06:00,
2013-11-16 00:11:00,45.5,32.5,30.18,South,184,4.0,14.0,60,0.00,,,0.00,WUHU216DAVISVP2,2013-11-16 05:11:00,
2013-11-16 00:16:00,45.5,32.5,30.18,South,174,6.0,10.0,60,0.00,,,0.00,WUHU216DAVISVP2,2013-11-16 05:16:00,
2013-11-16 00:21:00,45.4,32.4,30.18,SSE,153,2.0,14.0,60,0.00,,,0.00,WUHU216DAVISVP2,2013-11-16 05:21:00,
2013-11-16 00:26:00,45.2,32.6,30.18,South,176,0.0,14.0,61,0.00,,,0.00,WUHU216DAVISVP2,2013-11-16 05:26:00,
2013-11-16 00:31:00,45.1,32.5,30.18,SSW,205,2.0,10.0,61,0.00,,,0.00,WUHU216DAVISVP2,2013-11-16 05:31:00,
2013-11-16 00:36:00,45.0,32.4,30.18,SSW,206,0.0,10.0,61,0.00,,,0.00,WUHU216DAVISVP2,2013-11-16 05:36:00,
2013-11-16 00:41:00,44.8,32.2,30.18,South,178,6.0,14.0,61,0.00,,,0.00,WUHU216DAVISVP2,2013-11-16 05:41:00,
2013-11-16 00:46:00,44.8,32.7,30.19,West,274,4.0,14.0,62,0.00,,,0.00,WUHU216DAVISVP2,2013-11-16 05:46:00,
2013-11-16 00:51:00,44.7,32.6,30.19,South,191,8.0,10.0,62,0.00,,,0.00,WUHU216DAVISVP2,2013-11-16 05:51:00,
2013-11-16 00:56:00,44.7,32.6,30.19,South,184,6.0,12.0,62,0.00,,,0.00,WUHU216DAVISVP2,2013-11-16 05:56:00,
2013-11-16 01:04:00,44.7,32.5,30.19,WSW,240,8.0,14.0,62,0.00,,,0.00,WUHU216DAVISVP2,2013-11-16 06:04:00,
2013-11-16 01:10:00,44.6,32.5,30.19,WSW,242,6.0,14.0,62,0.00,,,0.00,WUHU216DAVISVP2,2013-11-16 06:10:00,
2013-11-16 01:15:00,44.4,32.7,30.19,South,169,4.0,8.0,63,0.00,,,0.00,WUHU216DAVISVP2,2013-11-16 06:15:00,
2013-11-16 01:20:00,44.3,32.6,30.19,SSW,209,8.0,14.0,63,0.00,,,0.00,WUHU216DAVISVP2,2013-11-16 06:20:00,
2013-11-16 01:25:00,44.5,32.8,30.19,SSW,197,2.0,14.0,63,0.00,,,0.00,WUHU216DAVISVP2,2013-11-16 06:25:00,
2013-11-16 01:30:00,44.4,33.1,30.19,SSW,210,4.0,14.0,64,0.00,,,0.00,WUHU216DAVISVP2,2013-11-16 06:30:00,
2013-11-16 01:35:00,44.4,33.1,30.19,South,189,8.0,14.0,64,0.00,,,0.00,WUHU216DAVISVP2,2013-11-16 06:35:00,
2013-11-16 01:40:00,44.2,32.9,30.19,SSE,165,10.0,14.0,64,0.00,,,0.00,WUHU216DAVISVP2,2013-11-16 06:40:00,
2013-11-16 01:45:00,44.2,33.3,30.19,SSW,206,0.0,14.0,65,0.00,,,0.00,WUHU216DAVISVP2,2013-11-16 06:45:00,
2013-11-16 01:50:00,44.0,33.1,30.19,South,186,6.0,10.0,65,0.00,,,0.00,WUHU216DAVISVP2,2013-11-16 06:50:00,
2013-11-16 01:55:00,44.0,33.1,30.19,South,172,4.0,12.0,65,0.00,,,0.00,WUHU216DAVISVP2,2013-11-16 06:55:00,
2013-11-16 02:00:00,44.0,33.5,30.19,SSE,157,4.0,12.0,66,0.00,,,0.00,WUHU216DAVISVP2,2013-11-16 07:00:00,
2013-11-16 02:05:00,43.8,33.3,30.19,SSW,197,2.0,12.0,66,0.00,,,0.00,WUHU216DAVISVP2,2013-11-16 07:05:00,
2013-11-16 02:10:00,43.6,33.5,30.19,South,173,0.0,12.0,67,0.00,,,0.00,WUHU216DAVISVP2,2013-11-16 07:10:00,
2013-11-16 02:15:00,43.4,33.3,30.19,South,175,6.0,12.0,67,0.00,,,0.00,WUHU216DAVISVP2,2013-11-16 07:15:00,
2013-11-16 02:20:00,43.4,33.3,30.19,South,191,4.0,14.0,67,0.00,,,0.00,WUHU216DAVISVP2,2013-11-16 07:20:00,
2013-11-16 02:25:00,43.2,33.4,30.19,SSW,202,10.0,14.0,68,0.00,,,0.00,WUHU216DAVISVP2,2013-11-16 07:25:00,
2013-11-16 02:30:00,43.0,33.2,30.19,SE,142,4.0,14.0,68,0.00,,,0.00,WUHU216DAVISVP2,2013-11-16 07:30:00,
2013-11-16 02:35:00,42.8,33.1,30.19,South,178,4.0,16.0,68,0.00,,,0.00,WUHU216DAVISVP2,2013-11-16 07:35:00,
2013-11-16 02:40:00,42.7,33.0,30.19,South,186,4.0,16.0,68,0.00,,,0.00,WUHU216DAVISVP2,2013-11-16 07:40:00,
2013-11-16 02:45:00,42.7,33.3,30.19,South,169,6.0,14.0,69,0.00,,,0.00,WUHU216DAVISVP2,2013-11-16 07:45:00,
2013-11-16 02:50:00,42.7,33.3,30.19,SSE,163,8.0,12.0,69,0.00,,,0.00,WUHU216DAVISVP2,2013-11-16 07:50:00,
2013-11-16 02:55:00,42.7,33.3,30.19,SSE,154,4.0,14.0,69,0.00,,,0.00,WUHU216DAVISVP2,2013-11-16 07:55:00,
2013-11-16 03:00:00,42.7,33.3,30.19,South,191,6.0,16.0,69,0.00,,,0.00,WUHU216DAVISVP2,2013-11-16 08:00:00,
2013-11-16 03:05:00,42.7,33.3,30.19,South,186,4.0,16.0,69,0.00,,,0.00,WUHU216DAVISVP2,2013-11-16 08:05:00,
2013-11-16 03:10:00,42.7,33.7,30.19,SSE,161,12.0,14.0,70,0.00,,,0.00,WUHU216DAVISVP2,2013-11-16 08:10:00,
2013-11-16 03:15:00,42.7,33.7,30.19,SSW,206,6.0,18.0,70,0.00,,,0.00,WUHU216DAVISVP2,2013-11-16 08:15:00,
2013-11-16 03:20:00,42.7,34.0,30.19,South,190,4.0,18.0,71,0.00,,,0.00,WUHU216DAVISVP2,2013-11-16 08:20:00,
2013-11-16 03:25:00,42.7,34.0,30.19,SSW,210,12.0,18.0,71,0.00,,,0.00,WUHU216DAVISVP2,2013-11-16 08:25:00,
2013-11-16 03:30:00,42.7,34.0,30.19,South,172,6.0,18.0,71,0.00,,,0.00,WUHU216DAVISVP2,2013-11-16 08:30:00,
2013-11-16 03:35:00,42.6,34.3,30.19,South,177,2.0,14.0,72,0.00,,,0.00,WUHU216DAVISVP2,2013-11-16 08:35:00,
2013-11-16 03:40:00,42.6,34.3,30.19,SSE,168,2.0,14.0,72,0.00,,,0.00,WUHU216DAVISVP2,2013-11-16 08:40:00,
2013-11-16 03:45:00,42.7,34.4,30.19,SE,142,6.0,16.0,72,0.00,,,0.00,WUHU216DAVISVP2,2013-11-16 08:45:00,
2013-11-16 03:50:00,42.7,34.7,30.19,South,172,6.0,16.0,73,0.00,,,0.00,WUHU216DAVISVP2,2013-11-16 08:50:00,
2013-11-16 03:55:00,42.8,34.8,30.19,South,173,8.0,16.0,73,0.00,,,0.00,WUHU216DAVISVP2,2013-11-16 08:55:00,
2013-11-16 04:00:00,42.9,34.9,30.19,South,182,8.0,14.0,73,0.00,,,0.00,WUHU216DAVISVP2,2013-11-16 09:00:00,
2013-11-16 04:05:00,42.9,35.2,30.19,South,188,2.0,16.0,74,0.00,,,0.00,WUHU216DAVISVP2,2013-11-16 09:05:00,
2013-11-16 04:10:00,42.9,35.2,30.19,SSW,206,4.0,16.0,74,0.00,,,0.00,WUHU216DAVISVP2,2013-11-16 09:10:00,
2013-11-16 04:15:00,42.9,35.2,30.19,SSW,204,6.0,14.0,74,0.00,,,0.00,WUHU216DAVISVP2,2013-11-16 09:15:00,
2013-11-16 04:20:00,42.9,35.6,30.19,SSE,164,0.0,14.0,75,0.00,,,0.00,WUHU216DAVISVP2,2013-11-16 09:20:00,
2013-11-16 04:25:00,43.0,35.7,30.18,SSW,192,2.0,16.0,75,0.00,,,0.00,WUHU216DAVISVP2,2013-11-16 09:25:00,
2013-11-16 04:30:00,43.0,35.7,30.19,South,184,4.0,16.0,75,0.00,,,0.00,WUHU216DAVISVP2,2013-11-16 09:30:00,
2013-11-16 04:35:00,42.9,35.6,30.19,SW,223,6.0,14.0,75,0.00,,,0.00,WUHU216DAVISVP2,2013-11-16 09:35:00,
2013-11-16 04:40:00,42.9,35.6,30.20,South,188,0.0,12.0,75,0.00,,,0.00,WUHU216DAVISVP2,2013-11-16 09:40:00,
2013-11-16 04:45:00,42.9,35.9,30.20,South,186,12.0,12.0,76,0.00,,,0.00,WUHU216DAVISVP2,2013-11-16 09:45:00,
2013-11-16 04:50:00,42.9,35.9,30.20,SSE,159,4.0,14.0,76,0.00,,,0.00,WUHU216DAVISVP2,2013-11-16 09:50:00,
2013-11-16 04:55:00,42.7,36.0,30.19,SSW,212,8.0,14.0,77,0.00,,,0.00,WUHU216DAVISVP2,2013-11-16 09:55:00,
2013-11-16 05:00:00,42.8,36.1,30.19,South,184,10.0,14.0,77,0.00,,,0.00,WUHU216DAVISVP2,2013-11-16 10:00:00,
2013-11-16 05:05:00,42.9,36.2,30.19,South,170,6.0,14.0,77,0.00,,,0.00,WUHU216DAVISVP2,2013-11-16 10:05:00,
2013-11-16 05:10:00,42.9,36.2,30.19,SE,144,2.0,16.0,77,0.00,,,0.00,WUHU216DAVISVP2,2013-11-16 10:10:00,
2013-11-16 05:15:00,42.9,36.5,30.20,SSE,149,6.0,16.0,78,0.00,,,0.00,WUHU216DAVISVP2,2013-11-16 10:15:00,
2013-11-16 05:20:00,43.0,36.6,30.20,South,177,2.0,16.0,78,0.00,,,0.00,WUHU216DAVISVP2,2013-11-16 10:20:00,
2013-11-16 05:25:00,43.1,36.7,30.20,South,184,16.0,18.0,78,0.00,,,0.00,WUHU216DAVISVP2,2013-11-16 10:25:00,
2013-11-16 05:30:00,43.1,36.7,30.19,SSE,165,10.0,18.0,78,0.00,,,0.00,WUHU216DAVISVP2,2013-11-16 10:30:00,
2013-11-16 05:35:00,43.2,36.8,30.19,South,174,4.0,18.0,78,0.00,,,0.00,WUHU216DAVISVP2,2013-11-16 10:35:00,
2013-11-16 05:40:00,43.1,36.7,30.19,SW,217,4.0,16.0,78,0.00,,,0.00,WUHU216DAVISVP2,2013-11-16 10:40:00,
2013-11-16 05:45:00,42.9,36.5,30.19,SSE,158,8.0,16.0,78,0.00,,,0.00,WUHU216DAVISVP2,2013-11-16 10:45:00,
2013-11-16 05:50:00,42.9,36.9,30.19,SE,139,8.0,16.0,79,0.00,,,0.00,WUHU216DAVISVP2,2013-11-16 10:50:00,
2013-11-16 05:55:00,42.7,36.7,30.19,SSE,163,6.0,14.0,79,0.00,,,0.00,WUHU216DAVISVP2,2013-11-16 10:55:00,
2013-11-16 06:00:00,42.6,36.6,30.19,SSE,147,2.0,12.0,79,0.00,,,0.00,WUHU216DAVISVP2,2013-11-16 11:00:00,
2013-11-16 06:05:00,42.4,36.7,30.19,SSE,167,0.0,12.0,80,0.00,,,0.00,WUHU216DAVISVP2,2013-11-16 11:05:00,
2013-11-16 06:10:00,42.2,36.8,30.20,South,188,4.0,10.0,81,0.00,,,0.00,WUHU216DAVISVP2,2013-11-16 11:10:00,
2013-11-16 06:15:00,42.3,36.9,30.20,SSW,192,8.0,14.0,81,0.00,,,0.00,WUHU216DAVISVP2,2013-11-16 11:15:00,
2013-11-16 06:20:00,42.4,37.0,30.20,South,172,4.0,14.0,81,0.00,,,0.00,WUHU216DAVISVP2,2013-11-16 11:20:00,
2013-11-16 06:25:00,42.5,36.8,30.20,SSW,199,10.0,14.0,80,0.00,,,0.00,WUHU216DAVISVP2,2013-11-16 11:25:00,
2013-11-16 06:30:00,42.6,37.2,30.20,SSE,148,6.0,18.0,81,0.00,,,0.00,WUHU216DAVISVP2,2013-11-16 11:30:00,
2013-11-16 06:35:00,42.7,37.0,30.20,South,169,8.0,18.0,80,0.00,,,0.00,WUHU216DAVISVP2,2013-11-16 11:35:00,
2013-11-16 06:40:00,42.7,37.3,30.21,South,188,4.0,14.0,81,0.00,,,0.00,WUHU216DAVISVP2,2013-11-16 11:40:00,
2013-11-16 06:45:00,42.8,37.4,30.22,WSW,245,0.0,10.0,81,0.00,,,0.00,WUHU216DAVISVP2,2013-11-16 11:45:00,
2013-11-16 06:50:00,42.9,37.5,30.23,South,186,4.0,10.0,81,0.00,,,0.00,WUHU216DAVISVP2,2013-11-16 11:50:00,
2013-11-16 06:55:00,43.1,37.4,30.23,South,184,2.0,10.0,80,0.00,,,0.00,WUHU216DAVISVP2,2013-11-16 11:55:00,
2013-11-16 07:00:00,43.3,37.6,30.23,SW,214,12.0,18.0,80,0.00,,,0.00,WUHU216DAVISVP2,2013-11-16 12:00:00,
2013-11-16 07:05:00,43.5,37.5,30.23,South,180,4.0,20.0,79,0.00,,,0.00,WUHU216DAVISVP2,2013-11-16 12:05:00,
2013-11-16 07:10:00,43.6,37.5,30.23,SW,225,4.0,20.0,79,0.00,,,0.00,WUHU216DAVISVP2,2013-11-16 12:10:00,
2013-11-16 07:15:00,43.7,37.6,30.23,SSW,209,10.0,18.0,79,0.00,,,0.00,WUHU216DAVISVP2,2013-11-16 12:15:00,
2013-11-16 07:20:00,43.9,38.2,30.23,South,189,8.0,18.0,80,0.00,,,0.00,WUHU216DAVISVP2,2013-11-16 12:20:00,
2013-11-16 07:25:00,44.0,37.9,30.23,SE,140,4.0,18.0,79,0.00,,,0.00,WUHU216DAVISVP2,2013-11-16 12:25:00,
2013-11-16 07:30:00,44.0,38.3,30.23,South,189,10.0,18.0,80,0.00,,,0.00,WUHU216DAVISVP2,2013-11-16 12:30:00,
2013-11-16 07:35:00,44.1,38.3,30.23,SW,227,4.0,18.0,80,0.00,,,0.00,WUHU216DAVISVP2,2013-11-16 12:35:00,
2013-11-16 07:40:00,44.2,38.4,30.24,South,173,8.0,16.0,80,0.00,,,0.00,WUHU216DAVISVP2,2013-11-16 12:40:00,
2013-11-16 07:45:00,44.3,38.5,30.23,South,184,4.0,18.0,80,0.00,,,0.00,WUHU216DAVISVP2,2013-11-16 12:45:00,
2013-11-16 07:50:00,44.3,38.5,30.23,SSW,212,10.0,18.0,80,0.00,,,0.00,WUHU216DAVISVP2,2013-11-16 12:50:00,
2013-11-16 07:55:00,44.4,38.6,30.23,SSE,163,8.0,14.0,80,0.00,,,0.00,WUHU216DAVISVP2,2013-11-16 12:55:00,
2013-11-16 08:00:00,44.5,38.7,30.23,South,191,12.0,16.0,80,0.00,,,0.00,WUHU216DAVISVP2,2013-11-16 13:00:00,
2013-11-16 08:05:00,44.7,38.9,30.22,SSW,196,2.0,16.0,80,0.00,,,0.00,WUHU216DAVISVP2,2013-11-16 13:05:00,
2013-11-16 08:10:00,44.8,39.3,30.22,SSE,164,8.0,16.0,81,0.00,,,0.00,WUHU216DAVISVP2,2013-11-16 13:10:00,
2013-11-16 08:15:00,44.9,39.4,30.22,SSW,212,6.0,12.0,81,0.00,,,0.00,WUHU216DAVISVP2,2013-11-16 13:15:00,
2013-11-16 08:20:00,45.2,39.7,30.22,SSE,149,18.0,22.0,81,0.00,,,0.00,WUHU216DAVISVP2,2013-11-16 13:20:00,
2013-11-16 08:25:00,45.7,40.2,30.22,SSE,158,4.0,22.0,81,0.00,,,0.00,WUHU216DAVISVP2,2013-11-16 13:25:00,
2013-11-16 08:30:00,46.1,40.6,30.22,SW,223,8.0,20.0,81,0.00,,,0.00,WUHU216DAVISVP2,2013-11-16 13:30:00,
2013-11-16 08:35:00,46.5,41.0,30.22,SSW,211,6.0,20.0,81,0.00,,,0.00,WUHU216DAVISVP2,2013-11-16 13:35:00,
2013-11-16 08:40:00,47.0,41.2,30.22,SSE,163,10.0,22.0,80,0.00,,,0.00,WUHU216DAVISVP2,2013-11-16 13:40:00,
2013-11-16 08:45:00,47.4,41.6,30.21,South,184,12.0,22.0,80,0.00,,,0.00,WUHU216DAVISVP2,2013-11-16 13:45:00,
2013-11-16 08:50:00,47.9,42.1,30.21,SSE,151,2.0,18.0,80,0.00,,,0.00,WUHU216DAVISVP2,2013-11-16 13:50:00,
2013-11-16 08:55:00,48.4,42.2,30.21,South,184,0.0,18.0,79,0.00,,,0.00,WUHU216DAVISVP2,2013-11-16 13:55:00,
2013-11-16 09:00:00,48.9,42.7,30.21,SSW,193,4.0,18.0,79,0.00,,,0.00,WUHU216DAVISVP2,2013-11-16 14:00:00,
2013-11-16 09:05:00,49.3,42.8,30.22,SSE,157,10.0,18.0,78,0.00,,,0.00,WUHU216DAVISVP2,2013-11-16 14:05:00,
2013-11-16 09:10:00,49.6,42.7,30.22,SW,225,4.0,18.0,77,0.00,,,0.00,WUHU216DAVISVP2,2013-11-16 14:10:00,
2013-11-16 09:15:00,49.9,43.0,30.22,South,178,4.0,16.0,77,0.00,,,0.00,WUHU216DAVISVP2,2013-11-16 14:15:00,
2013-11-16 09:20:00,50.4,43.2,30.22,SSW,208,2.0,16.0,76,0.00,,,0.00,WUHU216DAVISVP2,2013-11-16 14:20:00,
2013-11-16 09:25:00,50.8,43.6,30.21,SSE,167,4.0,22.0,76,0.00,,,0.00,WUHU216DAVISVP2,2013-11-16 14:25:00,
2013-11-16 09:30:00,51.0,43.4,30.21,SSE,166,10.0,22.0,75,0.00,,,0.00,WUHU216DAVISVP2,2013-11-16 14:30:00,
2013-11-16 09:35:00,50.9,43.3,30.21,South,186,16.0,22.0,75,0.00,,,0.00,WUHU216DAVISVP2,2013-11-16 14:35:00,
2013-11-16 09:40:00,50.8,43.6,30.21,South,175,2.0,18.0,76,0.00,,,0.00,WUHU216DAVISVP2,2013-11-16 14:40:00,
2013-11-16 09:45:00,50.8,43.6,30.21,SSW,194,6.0,28.0,76,0.00,,,0.00,WUHU216DAVISVP2,2013-11-16 14:45:00,
2013-11-16 09:50:00,51.0,43.4,30.22,SSW,207,4.0,28.0,75,0.00,,,0.00,WUHU216DAVISVP2,2013-11-16 14:50:00,
2013-11-16 09:55:00,51.2,44.0,30.21,South,189,8.0,16.0,76,0.00,,,0.00,WUHU216DAVISVP2,2013-11-16 14:55:00,
2013-11-16 10:00:00,51.4,43.8,30.21,SSE,161,16.0,24.0,75,0.00,,,0.00,WUHU216DAVISVP2,2013-11-16 15:00:00,
2013-11-16 10:06:00,51.6,44.0,30.21,South,171,8.0,24.0,75,0.00,,,0.00,WUHU216DAVISVP2,2013-11-16 15:06:00,
2013-11-16 10:11:00,51.8,44.2,30.21,SE,131,4.0,18.0,75,0.00,,,0.00,WUHU216DAVISVP2,2013-11-16 15:11:00,
2013-11-16 10:15:00,51.9,44.3,30.21,South,180,2.0,18.0,75,0.00,,,0.00,WUHU216DAVISVP2,2013-11-16 15:15:00,
2013-11-16 10:20:00,52.0,44.4,30.21,South,173,14.0,22.0,75,0.00,,,0.00,WUHU216DAVISVP2,2013-11-16 15:20:00,
2013-11-16 10:25:00,52.0,44.4,30.21,South,172,4.0,22.0,75,0.00,,,0.00,WUHU216DAVISVP2,2013-11-16 15:25:00,
2013-11-16 10:30:00,52.1,44.5,30.21,WNW,285,4.0,22.0,75,0.00,,,0.00,WUHU216DAVISVP2,2013-11-16 15:30:00,
2013-11-16 10:35:00,52.3,44.7,30.21,SW,236,6.0,22.0,75,0.00,,,0.00,WUHU216DAVISVP2,2013-11-16 15:35:00,
2013-11-16 10:41:00,52.3,44.7,30.21,South,189,14.0,20.0,75,0.00,,,0.00,WUHU216DAVISVP2,2013-11-16 15:41:00,
2013-11-16 10:45:00,52.2,44.6,30.21,SSE,151,10.0,22.0,75,0.00,,,0.00,WUHU216DAVISVP2,2013-11-16 15:45:00,
2013-11-16 10:51:00,52.3,45.0,30.21,South,174,8.0,22.0,76,0.00,,,0.00,WUHU216DAVISVP2,2013-11-16 15:51:00,
2013-11-16 10:55:00,52.3,45.0,30.21,SW,215,8.0,20.0,76,0.00,,,0.00,WUHU216DAVISVP2,2013-11-16 15:55:00,
2013-11-16 11:00:00,52.4,45.1,30.21,South,172,8.0,16.0,76,0.00,,,0.00,WUHU216DAVISVP2,2013-11-16 16:00:00,
2013-11-16 11:05:00,52.4,45.1,30.20,South,180,2.0,22.0,76,0.00,,,0.00,WUHU216DAVISVP2,2013-11-16 16:05:00,
2013-11-16 11:10:00,52.6,45.3,30.20,SSE,150,2.0,22.0,76,0.00,,,0.00,WUHU216DAVISVP2,2013-11-16 16:10:00,
2013-11-16 11:15:00,52.8,45.5,30.20,WSW,244,2.0,12.0,76,0.00,,,0.00,WUHU216DAVISVP2,2013-11-16 16:15:00,
2013-11-16 11:21:00,53.0,45.7,30.20,South,170,10.0,28.0,76,0.00,,,0.00,WUHU216DAVISVP2,2013-11-16 16:21:00,
2013-11-16 11:26:00,53.1,45.8,30.19,South,182,2.0,28.0,76,0.00,,,0.00,WUHU216DAVISVP2,2013-11-16 16:26:00,
2013-11-16 11:30:00,53.2,45.9,30.19,SSE,161,8.0,22.0,76,0.00,,,0.00,WUHU216DAVISVP2,2013-11-16 16:30:00,
2013-11-16 11:36:00,53.2,45.9,30.18,SW,219,8.0,22.0,76,0.00,,,0.00,WUHU216DAVISVP2,2013-11-16 16:36:00,
2013-11-16 11:40:00,53.4,46.1,30.17,East,98,4.0,20.0,76,0.00,,,0.00,WUHU216DAVISVP2,2013-11-16 16:40:00,
2013-11-16 11:45:00,53.9,46.6,30.17,SSW,197,14.0,18.0,76,0.00,,,0.00,WUHU216DAVISVP2,2013-11-16 16:45:00,
2013-11-16 11:50:00,54.2,46.5,30.17,SSW,198,12.0,22.0,75,0.00,,,0.00,WUHU216DAVISVP2,2013-11-16 16:50:00,
2013-11-16 11:56:00,54.4,46.7,30.17,SSE,166,8.0,24.0,75,0.00,,,0.00,WUHU216DAVISVP2,2013-11-16 16:56:00,
2013-11-16 12:01:00,54.4,46.7,30.16,SSE,161,2.0,24.0,75,0.00,,,0.00,WUHU216DAVISVP2,2013-11-16 17:01:00,
2013-11-16 12:05:00,54.6,46.9,30.16,SSW,209,8.0,22.0,75,0.00,,,0.00,WUHU216DAVISVP2,2013-11-16 17:05:00,
2013-11-16 12:11:00,55.0,47.0,30.15,SSE,161,2.0,24.0,74,0.00,,,0.00,WUHU216DAVISVP2,2013-11-16 17:11:00,
2013-11-16 12:16:00,55.5,47.1,30.16,South,177,14.0,24.0,73,0.00,,,0.00,WUHU216DAVISVP2,2013-11-16 17:16:00,
2013-11-16 12:21:00,55.9,47.5,30.15,SW,221,14.0,24.0,73,0.00,,,0.00,WUHU216DAVISVP2,2013-11-16 17:21:00,
2013-11-16 12:26:00,56.0,47.2,30.15,WNW,298,4.0,24.0,72,0.00,,,0.00,WUHU216DAVISVP2,2013-11-16 17:26:00,
2013-11-16 12:31:00,55.9,47.1,30.15,SSW,202,4.0,26.0,72,0.00,,,0.00,WUHU216DAVISVP2,2013-11-16 17:31:00,
2013-11-16 12:36:00,56.0,47.2,30.14,South,175,4.0,26.0,72,0.00,,,0.00,WUHU216DAVISVP2,2013-11-16 17:36:00,
2013-11-16 12:41:00,56.0,47.2,30.14,SSW,192,8.0,20.0,72,0.00,,,0.00,WUHU216DAVISVP2,2013-11-16 17:41:00,
2013-11-16 12:46:00,56.0,47.2,30.14,WSW,250,14.0,22.0,72,0.00,,,0.00,WUHU216DAVISVP2,2013-11-16 17:46:00,
2013-11-16 12:51:00,56.1,47.3,30.13,South,187,8.0,34.0,72,0.00,,,0.00,WUHU216DAVISVP2,2013-11-16 17:51:00,
2013-11-16 12:56:00,56.2,47.4,30.13,SW,223,8.0,34.0,72,0.00,,,0.00,WUHU216DAVISVP2,2013-11-16 17:56:00,
2013-11-16 13:01:00,56.4,47.6,30.14,South,171,8.0,28.0,72,0.00,,,0.00,WUHU216DAVISVP2,2013-11-16 18:01:00,
2013-11-16 13:06:00,56.5,47.7,30.13,South,169,14.0,30.0,72,0.00,,,0.00,WUHU216DAVISVP2,2013-11-16 18:06:00,
2013-11-16 13:11:00,56.6,47.8,30.13,SW,219,14.0,30.0,72,0.00,,,0.00,WUHU216DAVISVP2,2013-11-16 18:11:00,
2013-11-16 13:16:00,56.8,47.6,30.13,SW,217,6.0,28.0,71,0.00,,,0.00,WUHU216DAVISVP2,2013-11-16 18:16:00,
2013-11-16 13:21:00,57.0,47.8,30.13,SSE,150,8.0,28.0,71,0.00,,,0.00,WUHU216DAVISVP2,2013-11-16 18:21:00,
2013-11-16 13:26:00,57.1,47.9,30.13,South,184,4.0,28.0,71,0.00,,,0.00,WUHU216DAVISVP2,2013-11-16 18:26:00,
2013-11-16 13:31:00,57.2,48.0,30.13,SSW,206,12.0,26.0,71,0.00,,,0.00,WUHU216DAVISVP2,2013-11-16 18:31:00,
2013-11-16 13:36:00,57.3,47.7,30.12,SE,130,6.0,18.0,70,0.00,,,0.00,WUHU216DAVISVP2,2013-11-16 18:36:00,
2013-11-16 13:41:00,57.2,47.6,30.12,WSW,246,8.0,34.0,70,0.00,,,0.00,WUHU216DAVISVP2,2013-11-16 18:41:00,
2013-11-16 13:46:00,57.1,47.9,30.12,SSE,163,4.0,34.0,71,0.00,,,0.00,WUHU216DAVISVP2,2013-11-16 18:46:00,
2013-11-16 13:51:00,57.2,48.0,30.12,SW,215,8.0,22.0,71,0.00,,,0.00,WUHU216DAVISVP2,2013-11-16 18:51:00,
2013-11-16 13:56:00,57.3,48.1,30.11,SSE,159,10.0,22.0,71,0.00,,,0.00,WUHU216DAVISVP2,2013-11-16 18:56:00,
2013-11-16 14:01:00,57.4,48.2,30.11,SSW,203,16.0,26.0,71,0.00,,,0.00,WUHU216DAVISVP2,2013-11-16 19:01:00,
2013-11-16 14:06:00,57.6,48.4,30.11,SSE,165,16.0,26.0,71,0.00,,,0.00,WUHU216DAVISVP2,2013-11-16 19:06:00,
2013-11-16 14:11:00,57.9,48.7,30.10,SE,126,10.0,24.0,71,0.00,,,0.00,WUHU216DAVISVP2,2013-11-16 19:11:00,
2013-11-16 14:16:00,58.4,48.8,30.10,SSW,211,14.0,24.0,70,0.00,,,0.00,WUHU216DAVISVP2,2013-11-16 19:16:00,
2013-11-16 14:21:00,58.9,48.9,30.10,South,191,18.0,24.0,69,0.00,,,0.00,WUHU216DAVISVP2,2013-11-16 19:21:00,
2013-11-16 14:26:00,59.2,48.8,30.10,SE,139,8.0,40.0,68,0.00,,,0.00,WUHU216DAVISVP2,2013-11-16 19:26:00,
2013-11-16 14:31:00,59.6,48.8,30.09,South,189,8.0,40.0,67,0.00,,,0.00,WUHU216DAVISVP2,2013-11-16 19:31:00,
2013-11-16 14:36:00,59.7,48.5,30.09,South,177,12.0,38.0,66,0.00,,,0.00,WUHU216DAVISVP2,2013-11-16 19:36:00,
2013-11-16 14:41:00,59.7,48.1,30.09,SSE,161,4.0,38.0,65,0.00,,,0.00,WUHU216DAVISVP2,2013-11-16 19:41:00,
2013-11-16 14:46:00,59.6,48.0,30.10,South,169,4.0,28.0,65,0.00,,,0.00,WUHU216DAVISVP2,2013-11-16 19:46:00,
2013-11-16 14:51:00,59.3,48.1,30.10,South,169,6.0,32.0,66,0.00,,,0.00,WUHU216DAVISVP2,2013-11-16 19:51:00,
2013-11-16 14:56:00,59.3,48.1,30.10,SSW,202,14.0,32.0,66,0.00,,,0.00,WUHU216DAVISVP2,2013-11-16 19:56:00,
2013-11-16 15:01:00,59.2,48.4,30.09,SSW,203,18.0,30.0,67,0.00,,,0.00,WUHU216DAVISVP2,2013-11-16 20:01:00,
2013-11-16 15:06:00,59.1,48.3,30.09,SSE,151,8.0,30.0,67,0.00,,,0.00,WUHU216DAVISVP2,2013-11-16 20:06:00,
2013-11-16 15:11:00,59.1,48.3,30.09,SSW,205,6.0,28.0,67,0.00,,,0.00,WUHU216DAVISVP2,2013-11-16 20:11:00,
2013-11-16 15:16:00,59.0,48.6,30.09,ESE,119,14.0,28.0,68,0.00,,,0.00,WUHU216DAVISVP2,2013-11-16 20:16:00,
2013-11-16 15:21:00,58.9,48.5,30.09,SSW,211,10.0,28.0,68,0.00,,,0.00,WUHU216DAVISVP2,2013-11-16 20:21:00,
2013-11-16 15:26:00,58.8,48.4,30.08,South,181,6.0,30.0,68,0.00,,,0.00,WUHU216DAVISVP2,2013-11-16 20:26:00,
2013-11-16 15:31:00,58.5,48.5,30.08,SSW,197,12.0,30.0,69,0.00,,,0.00,WUHU216DAVISVP2,2013-11-16 20:31:00,
2013-11-16 15:36:00,58.4,48.4,30.08,SSE,163,12.0,24.0,69,0.00,,,0.00,WUHU216DAVISVP2,2013-11-16 20:36:00,
2013-11-16 15:41:00,58.2,48.6,30.08,WNW,286,14.0,24.0,70,0.00,,,0.00,WUHU216DAVISVP2,2013-11-16 20:41:00,
2013-11-16 15:46:00,58.1,48.5,30.07,SE,139,2.0,28.0,70,0.00,,,0.00,WUHU216DAVISVP2,2013-11-16 20:46:00,
2013-11-16 15:51:00,57.9,48.7,30.07,South,179,10.0,28.0,71,0.00,,,0.00,WUHU216DAVISVP2,2013-11-16 20:51:00,
2013-11-16 15:56:00,57.9,48.7,30.07,SSE,157,6.0,26.0,71,0.00,,,0.00,WUHU216DAVISVP2,2013-11-16 20:56:00,
2013-11-16 16:01:00,57.8,48.6,30.07,SE,128,8.0,34.0,71,0.00,,,0.00,WUHU216DAVISVP2,2013-11-16 21:01:00,
2013-11-16 16:06:00,57.6,48.8,30.07,South,182,6.0,34.0,72,0.00,,,0.00,WUHU216DAVISVP2,2013-11-16 21:06:00,
2013-11-16 16:11:00,57.5,48.7,30.06,SSW,195,8.0,28.0,72,0.00,,,0.00,WUHU216DAVISVP2,2013-11-16 21:11:00,
2013-11-16 16:16:00,57.4,48.6,30.06,South,177,6.0,28.0,72,0.00,,,0.00,WUHU216DAVISVP2,2013-11-16 21:16:00,
2013-11-16 16:21:00,57.4,48.6,30.06,SW,220,12.0,24.0,72,0.00,,,0.00,WUHU216DAVISVP2,2013-11-16 21:21:00,
2013-11-16 16:26:00,57.3,48.8,30.06,SSE,160,12.0,20.0,73,0.00,,,0.00,WUHU216DAVISVP2,2013-11-16 21:26:00,
2013-11-16 16:31:00,57.2,48.7,30.07,SW,217,12.0,18.0,73,0.00,,,0.00,WUHU216DAVISVP2,2013-11-16 21:31:00,
2013-11-16 16:36:00,57.2,49.1,30.07,South,184,18.0,20.0,74,0.00,,,0.00,WUHU216DAVISVP2,2013-11-16 21:36:00,
2013-11-16 16:41:00,57.1,49.0,30.07,SW,226,4.0,26.0,74,0.00,,,0.00,WUHU216DAVISVP2,2013-11-16 21:41:00,
2013-11-16 16:46:00,57.1,49.0,30.07,South,175,8.0,26.0,74,0.00,,,0.00,WUHU216DAVISVP2,2013-11-16 21:46:00,
2013-11-16 16:51:00,56.9,49.2,30.07,SSW,192,20.0,24.0,75,0.00,,,0.00,WUHU216DAVISVP2,2013-11-16 21:51:00,
2013-11-16 16:56:00,56.8,49.1,30.07,SW,223,18.0,24.0,75,0.00,,,0.00,WUHU216DAVISVP2,2013-11-16 21:56:00,
2013-11-16 17:01:00,56.7,49.3,30.06,SE,144,4.0,22.0,76,0.00,,,0.00,WUHU216DAVISVP2,2013-11-16 22:01:00,
2013-11-16 17:06:00,56.6,49.2,30.06,South,179,10.0,30.0,76,0.00,,,0.00,WUHU216DAVISVP2,2013-11-16 22:06:00,
2013-11-16 17:11:00,56.5,49.1,30.06,South,171,8.0,30.0,76,0.00,,,0.00,WUHU216DAVISVP2,2013-11-16 22:11:00,
2013-11-16 17:16:00,56.4,49.4,30.06,SSW,192,10.0,22.0,77,0.00,,,0.00,WUHU216DAVISVP2,2013-11-16 22:16:00,
2013-11-16 17:21:00,56.3,49.3,30.06,SSW,208,4.0,26.0,77,0.00,,,0.00,WUHU216DAVISVP2,2013-11-16 22:21:00,
2013-11-16 17:26:00,56.2,49.2,30.06,SW,218,4.0,28.0,77,0.00,,,0.00,WUHU216DAVISVP2,2013-11-16 22:26:00,
2013-11-16 17:31:00,56.1,49.4,30.06,ESE,119,2.0,28.0,78,0.00,,,0.00,WUHU216DAVISVP2,2013-11-16 22:31:00,
2013-11-16 17:36:00,56.0,49.3,30.06,SSW,192,10.0,22.0,78,0.00,,,0.00,WUHU216DAVISVP2,2013-11-16 22:36:00,
2013-11-16 17:41:00,56.0,49.3,30.07,ESE,112,4.0,24.0,78,0.00,,,0.00,WUHU216DAVISVP2,2013-11-16 22:41:00,
2013-11-16 17:46:00,55.9,49.2,30.06,South,178,10.0,24.0,78,0.00,,,0.00,WUHU216DAVISVP2,2013-11-16 22:46:00,
2013-11-16 17:51:00,55.9,49.2,30.06,SSW,195,4.0,26.0,78,0.00,,,0.00,WUHU216DAVISVP2,2013-11-16 22:51:00,
2013-11-16 17:56:00,55.9,49.2,30.07,South,174,2.0,26.0,78,0.00,,,0.00,WUHU216DAVISVP2,2013-11-16 22:56:00,
2013-11-16 18:01:00,55.9,49.5,30.07,SSE,167,16.0,26.0,79,0.00,,,0.00,WUHU216DAVISVP2,2013-11-16 23:01:00,
2013-11-16 18:06:00,55.9,49.5,30.06,ESE,120,14.0,26.0,79,0.00,,,0.00,WUHU216DAVISVP2,2013-11-16 23:06:00,
2013-11-16 18:11:00,55.9,49.5,30.06,SW,215,14.0,22.0,79,0.00,,,0.00,WUHU216DAVISVP2,2013-11-16 23:11:00,
2013-11-16 18:16:00,55.8,49.4,30.06,SW,228,6.0,22.0,79,0.00,,,0.00,WUHU216DAVISVP2,2013-11-16 23:16:00,
2013-11-16 18:21:00,55.8,49.4,30.06,South,188,10.0,22.0,79,0.00,,,0.00,WUHU216DAVISVP2,2013-11-16 23:21:00,
2013-11-16 18:26:00,55.7,49.3,30.06,South,180,8.0,22.0,79,0.00,,,0.00,WUHU216DAVISVP2,2013-11-16 23:26:00,
2013-11-16 18:31:00,55.7,49.3,30.07,SSW,196,10.0,22.0,79,0.00,,,0.00,WUHU216DAVISVP2,2013-11-16 23:31:00,
2013-11-16 18:36:00,55.6,49.6,30.06,SSE,165,10.0,22.0,80,0.00,,,0.00,WUHU216DAVISVP2,2013-11-16 23:36:00,
2013-11-16 18:41:00,55.6,49.6,30.06,SSW,195,4.0,24.0,80,0.00,,,0.00,WUHU216DAVISVP2,2013-11-16 23:41:00,
2013-11-16 18:46:00,55.6,49.6,30.06,South,172,4.0,24.0,80,0.00,,,0.00,WUHU216DAVISVP2,2013-11-16 23:46:00,
2013-11-16 18:51:00,55.6,49.6,30.06,SSE,160,14.0,22.0,80,0.00,,,0.00,WUHU216DAVISVP2,2013-11-16 23:51:00,
2013-11-16 18:56:00,55.6,49.6,30.06,SSE,161,4.0,20.0,80,0.00,,,0.00,WUHU216DAVISVP2,2013-11-16 23:56:00,
2013-11-16 19:01:00,55.7,49.7,30.06,SSW,193,4.0,28.0,80,0.00,,,0.00,WUHU216DAVISVP2,2013-11-17 00:01:00,
2013-11-16 19:06:00,55.7,49.7,30.06,SSE,163,12.0,28.0,80,0.00,,,0.00,WUHU216DAVISVP2,2013-11-17 00:06:00,
2013-11-16 19:11:00,55.8,49.8,30.06,South,173,22.0,34.0,80,0.00,,,0.00,WUHU216DAVISVP2,2013-11-17 00:11:00,
2013-11-16 19:16:00,55.8,49.8,30.06,SE,125,6.0,34.0,80,0.00,,,0.00,WUHU216DAVISVP2,2013-11-17 00:16:00,
2013-11-16 19:21:00,55.8,49.8,30.06,SSW,195,6.0,24.0,80,0.00,,,0.00,WUHU216DAVISVP2,2013-11-17 00:21:00,
2013-11-16 19:26:00,55.8,49.8,30.06,SSE,163,20.0,26.0,80,0.00,,,0.00,WUHU216DAVISVP2,2013-11-17 00:26:00,
2013-11-16 19:31:00,55.8,49.8,30.06,SW,219,4.0,26.0,80,0.00,,,0.00,WUHU216DAVISVP2,2013-11-17 00:31:00,
2013-11-16 19:36:00,55.7,50.0,30.06,SE,137,6.0,20.0,81,0.00,,,0.00,WUHU216DAVISVP2,2013-11-17 00:36:00,
2013-11-16 19:41:00,55.6,49.9,30.06,SSW,198,2.0,16.0,81,0.00,,,0.00,WUHU216DAVISVP2,2013-11-17 00:41:00,
2013-11-16 19:46:00,55.6,49.9,30.06,SSE,167,2.0,20.0,81,0.00,,,0.00,WUHU216DAVISVP2,2013-11-17 00:46:00,
2013-11-16 19:51:00,55.5,49.8,30.05,South,190,4.0,20.0,81,0.00,,,0.00,WUHU216DAVISVP2,2013-11-17 00:51:00,
2013-11-16 19:56:00,55.3,49.6,30.05,SSW,207,8.0,22.0,81,0.00,,,0.00,WUHU216DAVISVP2,2013-11-17 00:56:00,
2013-11-16 20:01:00,55.3,49.9,30.05,SSE,150,8.0,22.0,82,0.00,,,0.00,WUHU216DAVISVP2,2013-11-17 01:01:00,
2013-11-16 20:06:00,55.2,49.8,30.04,SW,217,8.0,18.0,82,0.00,,,0.00,WUHU216DAVISVP2,2013-11-17 01:06:00,
2013-11-16 20:11:00,55.2,49.8,30.03,SSE,163,8.0,26.0,82,0.00,,,0.00,WUHU216DAVISVP2,2013-11-17 01:11:00,
2013-11-16 20:16:00,55.4,50.0,30.03,SSE,165,20.0,30.0,82,0.00,,,0.00,WUHU216DAVISVP2,2013-11-17 01:16:00,
2013-11-16 20:21:00,55.5,50.1,30.03,South,191,6.0,30.0,82,0.00,,,0.00,WUHU216DAVISVP2,2013-11-17 01:21:00,
2013-11-16 20:26:00,55.6,50.2,30.03,South,184,6.0,28.0,82,0.00,,,0.00,WUHU216DAVISVP2,2013-11-17 01:26:00,
2013-11-16 20:31:00,55.7,50.3,30.03,SSW,192,22.0,28.0,82,0.00,,,0.00,WUHU216DAVISVP2,2013-11-17 01:31:00,
2013-11-16 20:36:00,55.8,50.1,30.03,SW,215,12.0,24.0,81,0.00,,,0.00,WUHU216DAVISVP2,2013-11-17 01:36:00,
2013-11-16 20:41:00,55.8,50.1,30.03,SE,146,22.0,24.0,81,0.00,,,0.00,WUHU216DAVISVP2,2013-11-17 01:41:00,
2013-11-16 20:46:00,55.8,50.1,30.03,SSW,206,8.0,32.0,81,0.00,,,0.00,WUHU216DAVISVP2,2013-11-17 01:46:00,
2013-11-16 20:51:00,55.8,50.4,30.02,SSW,198,4.0,32.0,82,0.00,,,0.00,WUHU216DAVISVP2,2013-11-17 01:51:00,
2013-11-16 20:56:00,55.7,50.3,30.02,SSE,156,8.0,28.0,82,0.00,,,0.00,WUHU216DAVISVP2,2013-11-17 01:56:00,
2013-11-16 21:01:00,55.7,50.3,30.02,SW,214,4.0,28.0,82,0.00,,,0.00,WUHU216DAVISVP2,2013-11-17 02:01:00,
2013-11-16 21:06:00,55.7,50.3,30.02,SSW,212,4.0,36.0,82,0.00,,,0.00,WUHU216DAVISVP2,2013-11-17 02:06:00,
2013-11-16 21:11:00,55.8,50.4,30.02,South,183,10.0,36.0,82,0.00,,,0.00,WUHU216DAVISVP2,2013-11-17 02:11:00,
2013-11-16 21:16:00,55.8,50.4,30.02,SSE,160,18.0,34.0,82,0.00,,,0.00,WUHU216DAVISVP2,2013-11-17 02:16:00,
2013-11-16 21:21:00,55.9,50.5,30.02,SW,225,2.0,24.0,82,0.00,,,0.00,WUHU216DAVISVP2,2013-11-17 02:21:00,
2013-11-16 21:26:00,55.9,50.5,30.02,SSW,194,34.0,40.0,82,0.00,,,0.00,WUHU216DAVISVP2,2013-11-17 02:26:00,
2013-11-16 21:31:00,56.1,50.7,30.02,SSE,155,10.0,40.0,82,0.00,,,0.00,WUHU216DAVISVP2,2013-11-17 02:31:00,
2013-11-16 21:36:00,56.2,50.5,30.02,South,180,30.0,34.0,81,0.00,,,0.00,WUHU216DAVISVP2,2013-11-17 02:36:00,
2013-11-16 21:41:00,56.3,50.6,30.01,SE,143,4.0,34.0,81,0.00,,,0.00,WUHU216DAVISVP2,2013-11-17 02:41:00,
2013-11-16 21:46:00,56.2,50.5,30.01,SE,144,6.0,28.0,81,0.00,,,0.00,WUHU216DAVISVP2,2013-11-17 02:46:00,
2013-11-16 21:51:00,56.2,50.8,30.01,SSW,192,12.0,32.0,82,0.00,,,0.00,WUHU216DAVISVP2,2013-11-17 02:51:00,
2013-11-16 21:56:00,56.3,50.6,30.00,South,171,16.0,32.0,81,0.00,,,0.00,WUHU216DAVISVP2,2013-11-17 02:56:00,
2013-11-16 22:01:00,56.3,50.6,30.00,SSW,194,8.0,26.0,81,0.00,,,0.00,WUHU216DAVISVP2,2013-11-17 03:01:00,
2013-11-16 22:06:00,56.3,50.9,30.00,South,174,4.0,22.0,82,0.00,,,0.00,WUHU216DAVISVP2,2013-11-17 03:06:00,
2013-11-16 22:11:00,56.4,50.7,30.00,SSW,202,8.0,34.0,81,0.00,,,0.00,WUHU216DAVISVP2,2013-11-17 03:11:00,
2013-11-16 22:16:00,56.4,50.7,29.99,South,183,10.0,34.0,81,0.00,,,0.00,WUHU216DAVISVP2,2013-11-17 03:16:00,
2013-11-16 22:21:00,56.4,50.7,29.99,SSE,159,2.0,28.0,81,0.00,,,0.00,WUHU216DAVISVP2,2013-11-17 03:21:00,
2013-11-16 22:26:00,56.4,50.7,29.98,SSW,202,8.0,24.0,81,0.00,,,0.00,WUHU216DAVISVP2,2013-11-17 03:26:00,
2013-11-16 22:31:00,56.4,50.7,29.98,SSE,150,8.0,28.0,81,0.00,,,0.00,WUHU216DAVISVP2,2013-11-17 03:31:00,
2013-11-16 22:36:00,56.6,50.9,29.98,South,180,4.0,28.0,81,0.00,,,0.00,WUHU216DAVISVP2,2013-11-17 03:36:00,
2013-11-16 22:41:00,56.7,51.0,29.98,SW,229,10.0,36.0,81,0.00,,,0.00,WUHU216DAVISVP2,2013-11-17 03:41:00,
2013-11-16 22:46:00,56.8,51.1,29.98,SSE,158,6.0,36.0,81,0.00,,,0.00,WUHU216DAVISVP2,2013-11-17 03:46:00,
2013-11-16 22:51:00,56.9,51.2,29.98,SE,143,10.0,30.0,81,0.00,,,0.00,WUHU216DAVISVP2,2013-11-17 03:51:00,
2013-11-16 22:56:00,56.9,51.2,29.97,SSE,156,6.0,30.0,81,0.00,,,0.00,WUHU216DAVISVP2,2013-11-17 03:56:00,
2013-11-16 23:01:00,57.2,51.1,29.97,South,172,10.0,32.0,80,0.00,,,0.00,WUHU216DAVISVP2,2013-11-17 04:01:00,
2013-11-16 23:06:00,57.3,51.2,29.98,South,179,6.0,32.0,80,0.00,,,0.00,WUHU216DAVISVP2,2013-11-17 04:06:00,
2013-11-16 23:11:00,57.3,51.2,29.97,SSW,195,16.0,28.0,80,0.00,,,0.00,WUHU216DAVISVP2,2013-11-17 04:11:00,
2013-11-16 23:16:00,57.4,51.3,29.96,SSW,200,4.0,34.0,80,0.00,,,0.00,WUHU216DAVISVP2,2013-11-17 04:16:00,
2013-11-16 23:21:00,57.4,51.3,29.96,SSE,162,14.0,34.0,80,0.00,,,0.00,WUHU216DAVISVP2,2013-11-17 04:21:00,
2013-11-16 23:26:00,57.4,51.3,29.96,South,187,14.0,34.0,80,0.00,,,0.00,WUHU216DAVISVP2,2013-11-17 04:26:00,
2013-11-16 23:31:00,57.5,51.1,29.95,South,183,22.0,30.0,79,0.00,,,0.00,WUHU216DAVISVP2,2013-11-17 04:31:00,
2013-11-16 23:36:00,57.6,51.2,29.96,South,179,22.0,32.0,79,0.00,,,0.00,WUHU216DAVISVP2,2013-11-17 04:36:00,
2013-11-16 23:41:00,57.8,51.4,29.96,SSW,198,14.0,32.0,79,0.00,,,0.00,WUHU216DAVISVP2,2013-11-17 04:41:00,
2013-11-16 23:46:00,57.9,51.2,29.96,SSW,200,16.0,28.0,78,0.00,,,0.00,WUHU216DAVISVP2,2013-11-17 04:46:00,
2013-11-16 23:51:00,58.1,51.3,29.96,SW,231,10.0,28.0,78,0.00,,,0.00,WUHU216DAVISVP2,2013-11-17 04:51:00,
2013-11-16 23:56:00,58.1,51.3,29.96,SSW,196,6.0,34.0,78,0.00,,,0.00,WUHU216DAVISVP2,2013-11-17 04:56:00,